FREGAT R/B, 43509

Orbit data source: Space-Track

FREGAT R/B, 43509 is space debris in MEO originally from a launch on Sat, 16 Jun 2018 UTC launched from the Plesetsk Missile And Space Complex (PKMTR). Debris objects in space refer to the collection of defunct objects orbiting the Earth. Examples of debris include non-operational satellites, rocket bodies, and fragments generated from explosions, collisions, or faulty payload assembly.

Loading next visibility...
Identifier
43509, 2018-053B
Orbit
MEO
Country
Flag of CISCIS
Related business
Manufacturer
Lavochkin
Mission
Spacecraft
Bus & Motor
FREGAT, Unknown motor
Mass
1,000 kg wet, 1,000 kg dry
Launch date (UTC)
2018-06-16 (8 years ago)
Launch vehicle
Unknown
Launch site
Plesetsk Missile And Space Complex (PKMTR)
Object type
Payload
Rocket body
Debris
Shape & HBR
Cyl, 1.7 m
Radar Cross Section
8.354 m², Large (>1 m²)

Expand to show TLE details & history
Last TLE update: 2 days ago

TLE from 2 days ago
0 FREGAT R/B
1 43509U 18053B   26171.18177606 -.00000031  00000-0  00000+0 0  9995
2 43509  65.5901  77.9485 0097503  88.7240 272.4228  2.09215641 61208
Epoch: 2026-06-20T04:21Z
TLE epoch observation values (Epoch: 2026-06-20T04:21:45.451Z)
Latitude
0.00001°
Longitude
104.11976°
Altitude
19,436.952 km
Speed
3.93 km/s
True Right ascension
05h 11m 50s
True Declination
0° 00' 00"
Sunlit
Object was in daylight at epoch
Visualization orbit readout
Latitude
Unknown
Longitude
Unknown
Altitude
Unknown
Speed
Unknown
Apparent Right ascension
Unknown
Apparent Declination
Unknown
Sunlit
N/A
Visualization observer readout
Local Sidereal Time
23:20:37
Azimuth
Unknown
Elevation
Unknown
Doppler factor
Unknown
Orbital elements
Apogee altitude
19,696.184 km
Perigee altitude
19,192.629 km
Semi-major axis
25,822.543 km
Eccentricity
0.00975
Inclination
65.5901°
RAAN
77.9485°
Arg. of periapsis
88.724°
True anomaly
271.30599°
Mean anomaly
272.4228°
Eccentric anomaly
271.86444°
Mean motion
0.52305 °/min
Orbital period
688.27 mins
BSTAR
0
Loading maneuver chart data...
Computing Atmospheric mass density...
Loading historical data...
Loading historical data...
Loading historical data...
Loading historical data...
Loading historical data...
Loading historical data...
Loading historical data...
Other satellites on launch #53 in the year 2018 (2018-06-16 UTC)

Documentation

Showing up to 5 results
|